Regional Weather Roundup
Issued by NWS

Home | Current Version | Previous Version | Text Only | Print | Product List | Glossary Off
Versions: 1 2 3 4 5 6 7 8 9 10 11 12 13 14 15 16 17 18 19 20 21 22 23 24 25 26 27 28 29 30 31 32 33 34 35 36 37 38 39 40 41 42 43 44 45 46 47 48 49 50

486
ASUS43 KDTX 191810
RWRMI
MICHIGAN HOURLY REGIONAL WEATHER ROUNDUP
NATIONAL WEATHER SERVICE DETROIT/PONTIAC MI
200 PM EDT THU OCT 19 2017

NOTE: "FAIR" INDICATES FEW OR NO CLOUDS BELOW 12,000 FEET WITH NO
SIGNIFICANT WEATHER AND/OR OBSTRUCTION TO VISIBILITY.

MIZ047>049-052>055-059>063-066>070-074>076-081>083-191900-
SOUTHEAST LOWER MICHIGAN

CITY           SKY/WX    TMP DP  RH WIND       PRES   REMARKS
ADRIAN         FAIR      69  42  37 NW8       30.14F
6HR MIN TEMP:  47; 6HR MAX TEMP:  69;

ALMA           FAIR      66  21  18 W15G22    30.11F
ANN ARBOR      FAIR      68  45  43 W13G23    30.11F
BAD AXE        FAIR      63  29  27 W17G24    30.07S
6HR MIN TEMP:  55; 6HR MAX TEMP:  63;

CARO           FAIR      66  28  23 W12G21    30.07F
DETROIT CITY   FAIR      68  45  43 W10       30.09F
6HR MIN TEMP:  53; 6HR MAX TEMP:  68;

DETROIT        PTSUNNY   70  45  40 SW15      30.11F
6HR MIN TEMP:  52; 6HR MAX TEMP:  70;

FLINT          FAIR      66  33  29 W14       30.09F
6HR MIN TEMP:  54; 6HR MAX TEMP:  67;

GROSSE ILE     FAIR      70  47  43 SW7       30.09F
6HR MIN TEMP:  54; 6HR MAX TEMP:  70;

HILLSDALE      FAIR      68  37  32 W9G16     30.14F
HOWELL         FAIR      67  36  31 W13G18    30.11F
6HR MIN TEMP:  52; 6HR MAX TEMP:  67;


CITY           SKY/WX    TMP DP  RH WIND       PRES   REMARKS
JACKSON        FAIR      67  37  33 SW13G18   30.13F
6HR MIN TEMP:  53; 6HR MAX TEMP:  67;

LAMBERTVILLE   FAIR      71  46  41 W10       30.12F
LANSING        FAIR      66  24  20 W12       30.13F
6HR MIN TEMP:  53; 6HR MAX TEMP:  66;

LAPEER         FAIR      65  36  34 W13G20    30.08F
6HR MIN TEMP:  54; 6HR MAX TEMP:  66;

MONROE         FAIR      71  46  39 SW10      30.10F
MT. CLEMENS    PTSUNNY   69  47  45 W15       30.07F
6HR MIN TEMP:  53; 6HR MAX TEMP:  69;

PONTIAC        PTSUNNY   66  37  34 W20       30.09F
6HR MIN TEMP:  50; 6HR MAX TEMP:  66;

PORT HOPE        N/A     63  33  32 W10G21    30.03S
6HR MIN TEMP:  56; 6HR MAX TEMP:  63;

PORT HURON     FAIR      68  39  34 W7        30.07F
TRI CITIES     FAIR      67  28  23 W18G26    30.09F
6HR MIN TEMP:  54; 6HR MAX TEMP:  67;

MIDLAND        FAIR      67  26  21 W12G22    30.07F
TROY           FAIR      69  40  35 W10G16    30.11F
SAGINAW HB     FAIR      66  30  26 W13G21    30.07F
$$
MIZ043>046-050>051-056>058-064>065-071>073-077>080-191900-
SOUTHWEST LOWER MICHIGAN

CITY           SKY/WX    TMP DP  RH WIND       PRES   REMARKS
BATTLE CREEK   FAIR      66  34  30 W12       30.16S
6HR MIN TEMP:  51; 6HR MAX TEMP:  66;

BENTON HARBOR  FAIR      62  35  36 NW9       30.19S
6HR MIN TEMP:  54; 6HR MAX TEMP:  63;

BIG RAPIDS     FAIR      64  18  17 W14       30.11S
COLDWATER      FAIR      67  36  32 W9        30.15F
FREMONT        FAIR      65  28  25 NW12      30.14S
6HR MIN TEMP:  50; 6HR MAX TEMP:  65;

HOLLAND        FAIR      64  37  36 W9        30.17F
6HR MIN TEMP:  58; 6HR MAX TEMP:  65;

GRAND RAPIDS   PTSUNNY   66  30  26 NW10      30.14F
6HR MIN TEMP:  51; 6HR MAX TEMP:  66;

IONIA          FAIR      66  24  20 W15       30.12F
KALAMAZOO      FAIR      66  27  23 MISG      30.16F
6HR MIN TEMP:  49; 6HR MAX TEMP:  67;

LUDINGTON      FAIR      60  40  47 W9        30.13F
MARSHALL       FAIR      67  37  33 W10       30.14F
6HR MIN TEMP:  51; 6HR MAX TEMP:  67;

MOUNT PLEASANT FAIR      67  21  17 W16G23    30.09F
6HR MIN TEMP:  55; 6HR MAX TEMP:  68;

MUSKEGON       PTSUNNY   62  39  42 W12       30.16F
6HR MIN TEMP:  57; 6HR MAX TEMP:  63;

SOUTH HAVEN    FAIR      64  36  35 W8        30.18F
$$
MIZ016>042-191900-
NORTHERN LOWER MICHIGAN

CITY           SKY/WX    TMP DP  RH WIND       PRES   REMARKS
ALPENA         FAIR      64  29  26 W15G25    30.00S
6HR MIN TEMP:  53; 6HR MAX TEMP:  64;

BEAVER ISLAND  FAIR      60  36  41 W20G26    30.03R
BELLAIRE       FAIR      61  26  26 W10G16    30.06S
CADILLAC       FAIR      65  12  13 W15       30.08S
CHARLEVOIX     FAIR      60  37  41 W22G28    30.06F
6HR MIN TEMP:  55; 6HR MAX TEMP:  60;

FRANKFORT      FAIR      61  39  44 W12G18    30.10S
GAYLORD        FAIR      57  26  30 W20G25    30.04S
6HR MIN TEMP:  46; 6HR MAX TEMP:  57;

GRAYLING       FAIR      62  13  14 W15G25    30.06S
HARBOR SPRINGS FAIR      58  35  41 W13G23    30.02S
HOUGHTON LAKE  FAIR      62  25  24 W14       30.07S
6HR MIN TEMP:  53; 6HR MAX TEMP:  62;

MANISTEE       FAIR      61  39  44 SW13      30.11F
OSCODA         FAIR      64  22  20 W17G28    30.02S
6HR MIN TEMP:  47; 6HR MAX TEMP:  65;

PELLSTON       FAIR      61  35  37 W16G24    30.01S
6HR MIN TEMP:  52; 6HR MAX TEMP:  61;

ROGERS CITY    FAIR      62  32  32 W16G26    29.99S
TRAVERSE CITY  PTSUNNY   65  19  17 W15G29    30.06S
6HR MIN TEMP:  51; 6HR MAX TEMP:  65;

$$
MIZ007>008-015-191900-
EASTERN UPPER MICHIGAN

CITY           SKY/WX    TMP DP  RH WIND       PRES   REMARKS
KINROSS        FAIR      58  27  30 W17G26    29.96R
6HR MIN TEMP:  45; 6HR MAX TEMP:  59;

MACKINAC ISLAN FAIR      57  31  37 W20G29    29.99R
6HR MIN TEMP:  55; 6HR MAX TEMP:  58;

NEWBERRY       FAIR      57  27  31 W17G24    29.98R
S. S. MARIE    FAIR      59  32  36 W15G24    29.94S
6HR MIN TEMP:  50; 6HR MAX TEMP:  59;

MUNISING         N/A     62  27  26 W9        29.99R
6HR MIN TEMP:  48; 6HR MAX TEMP:  62;

$$
MIZ004>006-011>014-085-191900-
CENTRAL UPPER MICHIGAN

CITY           SKY/WX    TMP DP  RH WIND       PRES   REMARKS
MANISTIQUE     FAIR      62 -15   4 W12G20    30.01R
6HR MIN TEMP:  47; 6HR MAX TEMP:  63;

ESCANABA       FAIR      64  22  20 W12G18    30.02F
6HR MIN TEMP:  43; 6HR MAX TEMP:  64;

MENOMINEE      FAIR      63  29  27 W9G17     30.07F
6HR MIN TEMP:  46; 6HR MAX TEMP:  63;

SAWYER-GWINN   SUNNY     59  18  20 NW15G24   30.00S
$$
MIZ001>003-009>011-084-191900-
WESTERN UPPER MICHIGAN

CITY           SKY/WX    TMP DP  RH WIND       PRES   REMARKS
IRON MOUNTAIN  FAIR      63  22  20 W8G21     30.03S
6HR MIN TEMP:  46; 6HR MAX TEMP:  63;

HOUGHTON       FAIR      57  29  34 W26G36    29.96S
6HR MIN TEMP:  51; 6HR MAX TEMP:  57; 6HR PCP: TRACE;

COPPER HARBOR    N/A     57  27  31 NW10G24   29.94R
6HR MIN TEMP:  52; 6HR MAX TEMP:  58;

IRONWOOD       FAIR      62  27  26 W14       30.03F
6HR MIN TEMP:  45; 6HR MAX TEMP:  62;

$$

ABBREVIATIONS USED IN REMARKS
   TC - TEMPERATURE IN CELSIUS
  WCI - WIND CHILL INDEX
   HX - HEAT INDEX
  VSB - VISIBILITY





USA.gov is the U.S. government's official web portal to all federal, state and local government web resources and services.